This is the latest recevied weather packets stored in our database for station/object KM6YFK-13. If no packets are shown the sender has not sent any weather packets the latest 10 day(s).
| Time | Temp. | Humidity | Pressure | Rain* | Wind** | Luminosity | Snow |
|---|---|---|---|---|---|---|---|
| 1777587208 | 25.56° C | 87% | 1009.4 hPa | 1.78 mm | - | 17 W/m² | - |
| 1777586908 | 25.56° C | 84% | 1009.1 hPa | 3.3 mm | - | 29 W/m² | - |
| 1777586607 | 25.56° C | 82% | 1009.2 hPa | 0.51 mm | - | 30 W/m² | - |
| 1777586308 | 25.56° C | 80% | 1009.2 hPa | 0.25 mm | - | 42 W/m² | - |
| 1777586008 | 25.56° C | 79% | 1009.1 hPa | 0 mm | - | 53 W/m² | - |
| 1777585708 | 26.11° C | 78% | 1008.9 hPa | 0 mm | - | 70 W/m² | - |
| 1777585408 | 26.11° C | 79% | 1008.8 hPa | 0 mm | - | 101 W/m² | - |
| 1777585111 | 26.11° C | 79% | 1008.8 hPa | 0 mm | - | 100 W/m² | - |
| 1777584809 | 26.11° C | 79% | 1008.9 hPa | 0 mm | - | 96 W/m² | - |
| 1777584508 | 26.67° C | 78% | 1008.8 hPa | 0 mm | - | 99 W/m² | - |
| 1777584208 | 26.67° C | 76% | 1008.8 hPa | 0 mm | - | 160 W/m² | - |
| 1777583907 | 26.67° C | 78% | 1009 hPa | 0 mm | - | 534 W/m² | - |
| 1777583609 | 26.67° C | 79% | 1008.9 hPa | 0 mm | - | 327 W/m² | - |
| 1777583310 | 26.11° C | 80% | 1009 hPa | 0 mm | - | 194 W/m² | - |
| 1777582723 | 26.11° C | 79% | 1009.2 hPa | 0 mm | - | 121 W/m² | - |
| 1777582408 | 26.67° C | 78% | 1009.2 hPa | 0 mm | - | 150 W/m² | - |
| 1777582108 | 27.22° C | 78% | 1009.3 hPa | 0 mm | - | 373 W/m² | - |
| 1777581809 | 27.78° C | 74% | 1009.2 hPa | 0 mm | - | 308 W/m² | - |
| 1777581507 | 27.78° C | 71% | 1009 hPa | 0 mm | - | 339 W/m² | - |
| 1777581207 | 28.89° C | 70% | 1008.9 hPa | 0 mm | - | 176 W/m² | - |
| 1777580908 | 30° C | 62% | 1008.9 hPa | 0 mm | - | 133 W/m² | - |
| 1777580607 | 30.56° C | 44% | 1008.8 hPa | 0 mm | - | 225 W/m² | - |
| 1777580308 | 30.56° C | 43% | 1008.8 hPa | 0 mm | - | 307 W/m² | - |
| 1777580007 | 30.56° C | 43% | 1008.7 hPa | 0 mm | - | 222 W/m² | - |
| 1777579708 | 30.56° C | 43% | 1008.7 hPa | 0 mm | - | 196 W/m² | - |
* Rain latest hour (hover to see other rain measurements)
** Current wind speed in m/s (hover to see current wind gust speed)